Regional Weather Roundup
Issued by NWS Northern Indiana

Home | Current Version | Previous Version | Graphics & Text | Print | Product List | Glossary On
Versions: 1 2 3 4 5 6 7 8 9 10 11 12 13 14 15 16 17 18 19 20 21 22 23 24 25 26 27 28 29 30 31 32 33 34 35 36 37 38 39 40 41 42 43 44 45 46 47 48 49 50
191
ASUS43 KIWX 171010
RWRIWX

KIWX WEATHER ROUNDUP
NATIONAL WEATHER SERVICE NORTHERN INDIANA
600 AM EDT TUE OCT 17 2017

NOTE: "FAIR" INDICATES FEW OR NO CLOUDS BELOW 12,000 FEET WITH NO
SIGNIFICANT WEATHER AND/OR OBSTRUCTIONS TO VISIBILITY.

* THESE STATIONS ARE NOT UNDER NWS QUALITY CONTROL. THEY ALSO MAY NOT
  REPORT WEATHER SUCH AS PRECIPITATION OR FOG.

INZ001>027-171100-
NORTHERN INDIANA

CITY           SKY/WX    TMP DP  RH WIND       PRES   REMARKS
GARY*          PTCLDY    48  37  66 SW5       30.23S
VALPARAISO     CLEAR     45  38  76 S8        30.25R
MICHIGAN CITY* CLEAR     46  37  71 S7        30.24S
LAPORTE*       CLEAR     42  38  84 S5        30.25S
KNOX*          CLEAR     41  37  87 S7        30.26R
SOUTH BEND     CLEAR     44  39  82 SW10      30.25R
GOSHEN         CLEAR     44  37  76 SW9       30.26R
MONTICELLO*    CLEAR     44  38  79 S7        30.29R
LOGANSPORT*    CLEAR     41  36  81 SW8       30.31R
WARSAW*        CLOUDY    45  37  76 SW3       30.28R
AUBURN*        CLEAR     45  36  70 SW3       30.28R
FORT WAYNE     MOCLDY    41  36  82 SW8       30.29R
HUNTINGTON*    CLEAR     44  37  77 SW5       30.30R
PERU/GRISSOM   CLEAR     43  38  82 SW8       30.29R
MARION*        CLEAR     41  37  87 S5        30.32R

$$
INZ028>050-171100-
CENTRAL INDIANA

CITY           SKY/WX    TMP DP  RH WIND       PRES   REMARKS
LAFAYETTE      CLEAR     41  38  89 CALM      30.31R
KOKOMO*        CLEAR     47  37  68 SW8       30.31R
MUNCIE*        CLEAR     46  36  68 SW5       30.32R
INDIANAPOLIS   CLEAR     44  37  76 CALM      30.33R

$$
MIZ043>046-050>051-056>058-064>065-071>073-077>080-171100-
SOUTHWEST LOWER MICHIGAN

CITY           SKY/WX    TMP DP  RH WIND       PRES   REMARKS
BATTLE CREEK   CLEAR     43  38  82 SW8       30.22S
BENTON HARBOR  CLEAR     46  37  71 S6        30.21S
COLDWATER*     CLEAR     44  38  80 SW8       30.24S
HILLSDALE*     CLEAR     43  36  75 SW5       30.23S
HOLLAND        CLEAR     51  46  83 SW12      30.18S
GRAND RAPIDS   CLEAR     49  42  77 S12       30.17S
STURGIS*       CLEAR     41  37  88 S5        30.24S
THREE RIVERS*  FAIR      43  39  88 S6        30.24S

$$
OHZ001>008-015>018-024>025-171100-
NORTHWEST OHIO

CITY           SKY/WX    TMP DP  RH WIND       PRES   REMARKS
WAUSEON*       FAIR      43  39  87 SW7       30.27R
DEFIANCE       CLEAR     42  36  79 SW5       30.29R
FINDLAY        CLEAR     41  35  79 S8        30.29R
TOLEDO EXPRESS CLEAR     43  40  89 SW6       30.27R
TOLEDO METCALF CLEAR     45  38  76 SW8       30.29R
LIMA           CLEAR     42  37  82 S7        30.31R

$$
AND FOR LAKE MICHIGAN COASTAL AND OPEN LAKE BUOY OBSERVATIONS

STATION/POSITION TEMP    WIND        PRES    VSBY  WAVE
                 AIR SEA DIR/SP/G                  HT/PER
                 (F)     (DEG/KT/KT) (MB)    (MI)  (FT/S)
CALUMET HARBOR    52     200/  9/ 12 1022.3F
MICHIGAN CITY     51     180/ 14/ 16   N/A
BURNS HARBOR      51     190/ 15/ 18 1023.7S
SAINT JOSEPH      51     180/  7/ 14 1024.0
SOUTH LAKE BUOY   60 62  240/ 19/ 23 1021.0F         4/ 5
4 MI NW BRIDGMAN  55 56  220/ 16/ 19 1023.7          3/ 4
MICHIGAN CITY     53 57  210/ 16/ 19   N/A           2/ 3

$$
&&




USA.gov is the U.S. government's official web portal to all federal, state and local government web resources and services.